• In Hungary
  • List of Countries
  • For 7 days
  • Water Temperature
  • Satellite Maps
  • Weather Map
  • News
  • Weather Widgets
  • user-avatar
    Login

    Hourly Weather Galiakberovo

    Today, 25 May, Friday

    Time Temperature Precipitation Wind Pressure Humidity
    00:00 +14°C° 0.1 mm 0 mps 727 mmHg 90%
    01:00 +14°C° 0.1 mm 0 mps 727 mmHg 91%
    02:00 +14°C° 0.1 mm 0 mps 727 mmHg 91%
    03:00 +13°C° 0.1 mm 0 mps 727 mmHg 92%
    04:00 +13°C° 0.1 mm 0 mps 726 mmHg 93%
    05:00 +14°C° 0.1 mm 0 mps 726 mmHg 89%
    06:00 +16°C° 0.1 mm 0 mps 726 mmHg 85%
    07:00 +19°C° 0.1 mm 1 mps 725 mmHg 82%
    08:00 +19°C° 0.2 mm 2 mps 725 mmHg 78%
    09:00 +19°C° 0.2 mm 3 mps 725 mmHg 74%
    10:00 +20°C° 0.2 mm 4 mps 725 mmHg 70%
    11:00 +18°C° 0.9 mm 3 mps 724 mmHg 75%
    12:00 +16°C° 0.9 mm 3 mps 724 mmHg 81%
    13:00 +15°C° 0.9 mm 2 mps 724 mmHg 86%
    14:00 +15°C° 0.7 mm 2 mps 724 mmHg 87%
    15:00 +15°C° 0.7 mm 2 mps 724 mmHg 88%
    16:00 +15°C° 0.7 mm 2 mps 724 mmHg 89%
    17:00 +13°C° 0.3 mm 3 mps 724 mmHg 90%
    18:00 +12°C° 0.3 mm 3 mps 724 mmHg 91%
    19:00 +11°C° 0.3 mm 4 mps 724 mmHg 91%
    20:00 +10°C° 0.9 mm 4 mps 724 mmHg 92%
    21:00 +9°C° 0.9 mm 3 mps 724 mmHg 92%
    22:00 +8°C° 0.9 mm 3 mps 724 mmHg 92%
    23:00 +6°C° 0.1 mm 4 mps 724 mmHg 91%

    Tomorrow, 26 May, Saturday

    Time Temperature Precipitation Wind Pressure Humidity
    00:00 +6°C° 0.1 mm 4 mps 724 mmHg 90%
    01:00 +5°C° 0.1 mm 4 mps 724 mmHg 89%
    02:00 +4°C° 0 mm 4 mps 725 mmHg 89%
    03:00 +4°C° 0 mm 4 mps 725 mmHg 89%
    04:00 +3°C° 0 mm 4 mps 725 mmHg 89%
    05:00 +4°C° 0 mm 4 mps 726 mmHg 83%
    06:00 +5°C° 0 mm 5 mps 726 mmHg 77%
    07:00 +5°C° 0 mm 6 mps 727 mmHg 72%
    08:00 +7°C° 0 mm 6 mps 727 mmHg 62%
    09:00 +8°C° 0 mm 6 mps 728 mmHg 53%
    10:00 +9°C° 0 mm 6 mps 729 mmHg 43%
    11:00 +10°C° 0 mm 6 mps 729 mmHg 41%
    12:00 +11°C° 0 mm 6 mps 729 mmHg 38%
    13:00 +11°C° 0 mm 6 mps 730 mmHg 36%
    14:00 +11°C° 0 mm 6 mps 730 mmHg 36%
    15:00 +11°C° 0 mm 6 mps 730 mmHg 37%
    16:00 +11°C° 0 mm 6 mps 731 mmHg 37%
    17:00 +10°C° 0 mm 5 mps 731 mmHg 40%
    18:00 +10°C° 0 mm 4 mps 731 mmHg 44%
    19:00 +8°C° 0 mm 4 mps 732 mmHg 47%
    20:00 +8°C° 0 mm 3 mps 732 mmHg 53%
    21:00 +5°C° 0 mm 3 mps 733 mmHg 58%
    22:00 +4°C° 0 mm 2 mps 733 mmHg 64%
    23:00 +3°C° 0 mm 2 mps 733 mmHg 66%

    Day after tomorrow, 27 May, Sunday

    Time Temperature Precipitation Wind Pressure Humidity
    00:00 +3°C° 0 mm 2 mps 734 mmHg 68%
    01:00 +3°C° 0 mm 1 mps 734 mmHg 71%
    02:00 +3°C° 0 mm 1 mps 734 mmHg 71%
    03:00 +2°C° 0 mm 1 mps 734 mmHg 72%
    04:00 +2°C° 0 mm 1 mps 735 mmHg 73%
    05:00 +4°C° 0 mm 1 mps 735 mmHg 65%
    06:00 +6°C° 0 mm 1 mps 735 mmHg 57%
    07:00 +8°C° 0 mm 2 mps 735 mmHg 49%
    08:00 +9°C° 0 mm 2 mps 735 mmHg 47%
    09:00 +11°C° 0 mm 3 mps 735 mmHg 44%
    10:00 +13°C° 0 mm 4 mps 735 mmHg 41%
    11:00 +14°C° 0 mm 4 mps 735 mmHg 41%
    12:00 +15°C° 0 mm 4 mps 734 mmHg 42%
    13:00 +16°C° 0 mm 5 mps 734 mmHg 42%
    14:00 +16°C° 0 mm 5 mps 733 mmHg 44%
    15:00 +16°C° 0 mm 5 mps 733 mmHg 46%
    16:00 +16°C° 0 mm 6 mps 732 mmHg 48%
    17:00 +16°C° 0 mm 5 mps 732 mmHg 53%
    18:00 +15°C° 0 mm 5 mps 731 mmHg 58%
    19:00 +14°C° 0 mm 5 mps 731 mmHg 63%
    20:00 +13°C° 0 mm 5 mps 730 mmHg 66%
    21:00 +12°C° 0 mm 5 mps 730 mmHg 69%
    22:00 +10°C° 0 mm 5 mps 730 mmHg 72%
    23:00 +10°C° 0.1 mm 5 mps 729 mmHg 73%

    28 May, Monday

    Time Temperature Precipitation Wind Pressure Humidity
    00:00 +10°C° 0.1 mm 5 mps 728 mmHg 75%
    01:00 +10°C° 0.1 mm 6 mps 727 mmHg 76%
    02:00 +9°C° 0.7 mm 6 mps 726 mmHg 81%
    03:00 +9°C° 0.7 mm 6 mps 725 mmHg 85%
    04:00 +8°C° 0.7 mm 6 mps 725 mmHg 90%
    05:00 +8°C° 1.6 mm 7 mps 724 mmHg 91%
    06:00 +8°C° 1.6 mm 7 mps 723 mmHg 91%
    07:00 +8°C° 1.6 mm 7 mps 723 mmHg 92%
    08:00 +8°C° 1.6 mm 7 mps 723 mmHg 92%
    09:00 +7°C° 1.6 mm 6 mps 723 mmHg 91%
    10:00 +6°C° 1.6 mm 5 mps 723 mmHg 91%
    11:00 +8°C° 0.1 mm 5 mps 724 mmHg 81%
    12:00 +9°C° 0.1 mm 5 mps 724 mmHg 70%
    13:00 +10°C° 0.1 mm 5 mps 724 mmHg 60%
    14:00 +10°C° 0.3 mm 5 mps 724 mmHg 60%
    15:00 +10°C° 0.3 mm 6 mps 724 mmHg 61%
    16:00 +10°C° 0.3 mm 6 mps 724 mmHg 61%
    17:00 +9°C° 0.2 mm 5 mps 725 mmHg 65%
    18:00 +7°C° 0.2 mm 5 mps 725 mmHg 70%
    19:00 +6°C° 0.2 mm 4 mps 725 mmHg 75%
    20:00 +5°C° 0 mm 4 mps 725 mmHg 79%
    21:00 +3°C° 0 mm 3 mps 726 mmHg 82%
    22:00 +3°C° 0 mm 2 mps 726 mmHg 86%
    23:00 +2°C° 0 mm 2 mps 726 mmHg 88%

    29 May, Tuesday

    Time Temperature Precipitation Wind Pressure Humidity
    00:00 +2°C° 0 mm 2 mps 726 mmHg 89%
    01:00 +1°C° 0 mm 2 mps 726 mmHg 91%
    02:00 -1°C° 0 mm 2 mps 726 mmHg 92%
    03:00 -1°C° 0 mm 2 mps 726 mmHg 93%
    04:00 -2°C° 0 mm 2 mps 726 mmHg 94%
    05:00 0°C° 0 mm 3 mps 727 mmHg 85%
    06:00 +2°C° 0 mm 3 mps 727 mmHg 76%
    07:00 +3°C° 0 mm 4 mps 727 mmHg 66%
    08:00 +3°C° 0.1 mm 5 mps 727 mmHg 63%
    09:00 +5°C° 0.1 mm 5 mps 727 mmHg 59%
    10:00 +5°C° 0.1 mm 6 mps 726 mmHg 56%
    11:00 +5°C° 0.2 mm 6 mps 726 mmHg 55%
    12:00 +7°C° 0.2 mm 6 mps 726 mmHg 54%
    13:00 +7°C° 0.2 mm 6 mps 726 mmHg 53%
    14:00 +7°C° 0.3 mm 6 mps 726 mmHg 54%
    15:00 +7°C° 0.3 mm 6 mps 726 mmHg 56%
    16:00 +7°C° 0.3 mm 6 mps 726 mmHg 57%
    17:00 +6°C° 0.1 mm 5 mps 726 mmHg 60%
    18:00 +6°C° 0.1 mm 4 mps 726 mmHg 63%
    19:00 +5°C° 0.1 mm 3 mps 726 mmHg 66%
    20:00 +3°C° 0 mm 3 mps 726 mmHg 75%
    21:00 +2°C° 0 mm 2 mps 726 mmHg 83%
    22:00 +2°C° 0 mm 1 mps 727 mmHg 91%
    23:00 +1°C° 0 mm 1 mps 726 mmHg 92%

    30 May, Wednesday

    Time Temperature Precipitation Wind Pressure Humidity
    00:00 +1°C° 0 mm 1 mps 726 mmHg 92%
    01:00 0°C° 0 mm 1 mps 726 mmHg 93%
    02:00 0°C° 0 mm 1 mps 726 mmHg 93%
    03:00 0°C° 0 mm 1 mps 726 mmHg 93%
    04:00 0°C° 0 mm 1 mps 726 mmHg 93%
    05:00 +1°C° 0 mm 2 mps 725 mmHg 84%
    06:00 +3°C° 0 mm 2 mps 725 mmHg 75%
    07:00 +4°C° 0 mm 3 mps 725 mmHg 66%
    08:00 +4°C° 0.4 mm 3 mps 724 mmHg 71%
    09:00 +4°C° 0.4 mm 4 mps 723 mmHg 75%
    10:00 +4°C° 0.4 mm 4 mps 722 mmHg 79%
    11:00 +3°C° 0.5 mm 5 mps 721 mmHg 84%
    12:00 +3°C° 0.5 mm 5 mps 720 mmHg 89%
    13:00 +3°C° 0.5 mm 5 mps 719 mmHg 93%
    14:00 +5°C° 0.3 mm 5 mps 719 mmHg 93%
    15:00 +7°C° 0.3 mm 4 mps 718 mmHg 94%
    16:00 +9°C° 0.3 mm 3 mps 718 mmHg 94%
    17:00 +10°C° 0.2 mm 4 mps 718 mmHg 92%
    18:00 +10°C° 0.2 mm 4 mps 718 mmHg 90%
    19:00 +11°C° 0.2 mm 4 mps 718 mmHg 88%
    20:00 +10°C° 0 mm 3 mps 718 mmHg 90%
    21:00 +8°C° 0 mm 2 mps 718 mmHg 92%
    22:00 +6°C° 0 mm 2 mps 718 mmHg 94%
    23:00 +7°C° 0.2 mm 2 mps 718 mmHg 94%
    Show more